ONEWEB-0699

operational
NORAD ID: 61605 Int'l Des: 2024-188 Owner: ONEWEBE Country: UK Constellation: oneweb
LEOCIRCULARPOLARONEWEB_TYPE

关于 ONEWEB-0699

正在加载描述...

实时位置

正在加载3D地球...

即将过境

高度历史

Altitude vs Time

uPlot chart will show altitude changes over time

两行轨道根数

1 61605U 24188M 25251.60906087 .00000157 00000-0 41289-3 0 9992
2 61605 87.8755 92.4087 0001152 97.6156 262.5102 13.10375603 46437
Epoch: Sep 8, 2025 • Age: 13 hours

当前状态

高度 1234.2 km
速度 7.24 km/s
星下点 -31.79°S, 53.3°E
发射日期 Oct 20, 2024
运行时间 0.8 years
类型 internet

技术详情

分类 Payload
质量 148.00 kg
干质量 140.00 kg
总质量 148.00 kg
长度 1.30 m
直径 1.00 m
跨度 5.00 m
形状 Trapezoid+2 pan
制造商 ONEWUS
平台类型 ARROW
阶段状态 In Orbit
所有者/国家 ONEWEBE/UK

大型星座

Loading constellations...